| time (UTC) | temp C | wind direction | speed KPH | gust KPH | rain 1hr cm | rain 24hr cm | rain mn cm | humidity % | barometer mb |
| 20260901223033 | 35 | 202 | 6.4 | 14.5 | 0.00 | 0.00 | 0.00 | 59 | 1011.0 |
| 20260901221536 | 35 | 244 | 6.4 | 12.9 | 0.00 | 0.00 | 0.00 | 61 | 1011.1 |
| 20260901220030 | 35 | 219 | 8.0 | 16.1 | 0.00 | 0.00 | 0.00 | 60 | 1011.2 |
| 20260901214540 | 35 | 263 | 4.8 | 11.3 | 0.00 | 0.00 | 0.00 | 62 | 1011.2 |
| 20260901213028 | 36 | 223 | 6.4 | 16.1 | 0.00 | 0.00 | 0.00 | 58 | 1011.4 |
| 20260901211526 | 36 | 333 | 3.2 | 12.9 | 0.00 | 0.00 | 0.00 | 59 | 1011.5 |
| 20260901210025 | 36 | 259 | 1.6 | 9.7 | 0.00 | 0.00 | 0.00 | 59 | 1011.9 |
| 20260901204532 | 36 | 225 | 1.6 | 8.0 | 0.00 | 0.00 | 0.00 | 60 | 1012.0 |
| 20260901203025 | 36 | 276 | 4.8 | 11.3 | 0.00 | 0.00 | 0.00 | 59 | 1012.2 |
| 20260901201521 | 36 | 162 | 3.2 | 9.7 | 0.00 | 0.00 | 0.00 | 60 | 1012.3 |
| 20260901200021 | 36 | 190 | 4.8 | 9.7 | 0.00 | 0.00 | 0.00 | 59 | 1012.4 |
| 20260901194520 | 36 | 201 | 3.2 | 9.7 | 0.00 | 0.00 | 0.00 | 58 | 1012.7 |
| 20260901193019 | 36 | 277 | 0.0 | 9.7 | 0.00 | 0.00 | 0.00 | 60 | 1012.8 |
| 20260901191533 | 36 | 227 | 1.6 | 12.9 | 0.00 | 0.00 | 0.00 | 62 | 1013.1 |
| 20260901190015 | 35 | 342 | 1.6 | 8.0 | 0.00 | 0.00 | 0.00 | 64 | 1013.4 |
| 20260901184514 | 35 | 208 | 1.6 | 6.4 | 0.00 | 0.00 | 0.00 | 65 | 1013.6 |
| 20260901183015 | 34 | 156 | 3.2 | 8.0 | 0.00 | 0.00 | 0.00 | 65 | 1013.6 |
| 20260901181512 | 35 | 234 | 1.6 | 9.7 | 0.00 | 0.00 | 0.00 | 64 | 1013.8 |
| 20260901180011 | 35 | 194 | 4.8 | 8.0 | 0.00 | 0.00 | 0.00 | 62 | 1013.9 |
| 20260901174508 | 35 | 248 | 1.6 | 6.4 | 0.00 | 0.00 | 0.00 | 62 | 1013.9 |
| 20260901173007 | 35 | 208 | 1.6 | 4.8 | 0.00 | 0.00 | 0.00 | 64 | 1014.0 |
| 20260901171505 | 35 | 197 | 0.0 | 3.2 | 0.00 | 0.00 | 0.00 | 65 | 1013.9 |
| 20260901170002 | 33 | 208 | 0.0 | 4.8 | 0.00 | 0.00 | 0.00 | 67 | 1013.8 |
| 20260901164600 | 33 | 202 | 1.6 | 4.8 | 0.00 | 0.00 | 0.00 | 66 | 1013.9 |
| 20260901163102 | 33 | 201 | 0.0 | 11.3 | 0.00 | 0.00 | 0.00 | 67 | 1013.9 |
| 20260901161602 | 31 | 204 | 0.0 | 6.4 | 0.00 | 0.00 | 0.00 | 69 | 1013.9 |
| 20260901160051 | 31 | 233 | 0.0 | 8.0 | 0.00 | 0.00 | 0.00 | 71 | 1013.8 |
| 20260901154611 | 30 | 175 | 0.0 | 6.4 | 0.00 | 0.00 | 0.00 | 73 | 1013.7 |
| 20260901153048 | 30 | 314 | 0.0 | 3.2 | 0.00 | 0.00 | 0.00 | 75 | 1013.7 |
| 20260901151541 | 29 | 325 | 1.6 | 4.8 | 0.00 | 0.00 | 0.00 | 75 | 1013.7 |
| 20260901150037 | 28 | 355 | 4.8 | 8.0 | 0.00 | 0.00 | 0.00 | 75 | 1013.4 |
| 20260901144537 | 28 | 9 | 1.6 | 11.3 | 0.00 | 0.00 | 0.00 | 77 | 1013.3 |
| 20260901143031 | 27 | 340 | 6.4 | 12.9 | 0.00 | 0.00 | 0.00 | 80 | 1013.3 |
| 20260901141528 | 27 | 13 | 8.0 | 11.3 | 0.00 | 0.00 | 0.00 | 80 | 1013.1 |
| 20260901140025 | 27 | 9 | 8.0 | 12.9 | 0.00 | 0.00 | 0.00 | 82 | 1012.8 |
| 20260901134524 | 26 | 360 | 6.4 | 11.3 | 0.00 | 0.00 | 0.00 | 84 | 1012.6 |
| 20260901133023 | 25 | 342 | 8.0 | 12.9 | 0.00 | 0.00 | 0.00 | 85 | 1012.7 |
| 20260901131524 | 25 | 337 | 9.7 | 14.5 | 0.00 | 0.00 | 0.00 | 85 | 1012.4 |
| 20260901130020 | 25 | 326 | 8.0 | 12.9 | 0.00 | 0.00 | 0.00 | 85 | 1012.5 |
| 20260901124535 | 25 | 339 | 8.0 | 14.5 | 0.00 | 0.00 | 0.00 | 85 | 1012.4 |
| 20260901123018 | 25 | 344 | 6.4 | 11.3 | 0.00 | 0.00 | 0.00 | 85 | 1012.3 |
| 20260901121516 | 25 | 5 | 6.4 | 9.7 | 0.00 | 0.00 | 0.00 | 84 | 1012.3 |
| 20260901120014 | 25 | 13 | 6.4 | 9.7 | 0.00 | 0.00 | 0.00 | 82 | 1012.2 |
| 20260901114514 | 26 | 327 | 6.4 | 8.0 | 0.00 | 0.00 | 0.00 | 80 | 1012.2 |
| 20260901113014 | 26 | 345 | 0.0 | 3.2 | 0.00 | 0.00 | 0.00 | 78 | 1012.1 |
| 20260901111513 | 26 | 360 | 0.0 | 1.6 | 0.00 | 0.00 | 0.00 | 79 | 1012.2 |
| 20260901104511 | 26 | 339 | 6.4 | 8.0 | 0.00 | 0.00 | 0.00 | 79 | 1012.2 |
| 20260901103122 | 26 | 351 | 6.4 | 9.7 | 0.00 | 0.00 | 0.00 | 80 | 1012.3 |
| 20260901101509 | 25 | 360 | 6.4 | 9.7 | 0.00 | 0.00 | 0.00 | 81 | 1012.1 |
| 20260901100050 | 25 | 338 | 6.4 | 9.7 | 0.00 | 0.00 | 0.00 | 82 | 1012.2 |
| 20260901094515 | 25 | 355 | 4.8 | 9.7 | 0.00 | 0.00 | 0.00 | 82 | 1012.4 |
| 20260901093005 | 25 | 355 | 6.4 | 9.7 | 0.00 | 0.00 | 0.00 | 82 | 1012.4 |
| 20260901091502 | 26 | 342 | 8.0 | 11.3 | 0.00 | 0.00 | 0.00 | 81 | 1012.5 |
| 20260901090006 | 26 | 348 | 8.0 | 11.3 | 0.00 | 0.00 | 0.00 | 80 | 1012.6 |
| 20260901084607 | 26 | 360 | 6.4 | 11.3 | 0.00 | 0.00 | 0.00 | 80 | 1012.6 |
| 20260901084502 | 26 | 349 | 6.4 | 11.3 | 0.00 | 0.00 | 0.00 | 80 | 1012.6 |
| 20260901083106 | 26 | 360 | 6.4 | 9.7 | 0.00 | 0.00 | 0.00 | 79 | 1012.7 |
| 20260901081557 | 26 | 355 | 3.2 | 6.4 | 0.00 | 0.00 | 0.00 | 79 | 1012.7 |
| 20260901074553 | 26 | 5 | 3.2 | 8.0 | 0.00 | 0.00 | 0.00 | 82 | 1013.2 |
| 20260901073053 | 26 | 5 | 4.8 | 8.0 | 0.00 | 0.00 | 0.00 | 82 | 1013.1 |
| 20260901071551 | 26 | 344 | 4.8 | 9.7 | 0.00 | 0.00 | 0.00 | 83 | 1013.1 |
| 20260901070051 | 26 | 347 | 6.4 | 9.7 | 0.00 | 0.00 | 0.00 | 84 | 1013.3 |
| 20260901064550 | 26 | 355 | 6.4 | 11.3 | 0.00 | 0.00 | 0.00 | 84 | 1013.3 |
| 20260901063053 | 26 | 355 | 6.4 | 9.7 | 0.00 | 0.00 | 0.00 | 83 | 1013.3 |
| 20260901061545 | 26 | 355 | 6.4 | 9.7 | 0.00 | 0.00 | 0.00 | 83 | 1013.4 |
| 20260901060144 | 26 | 351 | 8.0 | 12.9 | 0.00 | 0.00 | 0.00 | 83 | 1013.2 |
| 20260901054544 | 26 | 355 | 4.8 | 8.0 | 0.00 | 0.00 | 0.00 | 80 | 1013.1 |
| 20260901053047 | 27 | 349 | 4.8 | 8.0 | 0.00 | 0.00 | 0.00 | 78 | 1013.2 |
| 20260901051546 | 27 | 338 | 8.0 | 12.9 | 0.00 | 0.00 | 0.00 | 77 | 1013.1 |
| 20260901050043 | 27 | 355 | 4.8 | 9.7 | 0.00 | 0.00 | 0.00 | 77 | 1013.0 |
| 20260901044542 | 27 | 332 | 4.8 | 8.0 | 0.00 | 0.00 | 0.00 | 78 | 1013.0 |
| 20260901043042 | 27 | 346 | 4.8 | 8.0 | 0.00 | 0.00 | 0.00 | 78 | 1012.9 |
| 20260901041542 | 27 | 355 | 4.8 | 8.0 | 0.00 | 0.00 | 0.00 | 77 | 1012.9 |
| 20260901040041 | 27 | 343 | 6.4 | 9.7 | 0.00 | 0.00 | 0.00 | 77 | 1012.7 |
| 20260901034542 | 27 | 340 | 3.2 | 8.0 | 0.00 | 0.00 | 0.00 | 76 | 1012.6 |
| 20260901033044 | 27 | 329 | 4.8 | 6.4 | 0.00 | 0.00 | 0.00 | 75 | 1012.3 |
| 20260901031540 | 27 | 355 | 3.2 | 6.4 | 0.00 | 0.00 | 0.00 | 75 | 1012.1 |
| 20260901030040 | 27 | 5 | 3.2 | 6.4 | 0.00 | 0.00 | 0.00 | 75 | 1012.1 |
| 20260901024539 | 27 | 360 | 3.2 | 6.4 | 0.00 | 0.00 | 0.00 | 76 | 1011.9 |
| 20260901023038 | 27 | 355 | 3.2 | 6.4 | 0.00 | 0.00 | 0.00 | 74 | 1011.7 |
| 20260901021538 | 28 | 5 | 8.0 | 12.9 | 0.00 | 0.00 | 0.00 | 74 | 1011.5 |
| 20260901020038 | 28 | 355 | 8.0 | 12.9 | 0.00 | 0.00 | 0.00 | 74 | 1011.3 |
| 20260901014537 | 28 | 350 | 11.3 | 14.5 | 0.00 | 0.00 | 0.00 | 73 | 1011.1 |
| 20260901013036 | 28 | 348 | 8.0 | 12.9 | 0.00 | 0.00 | 0.00 | 72 | 1011.0 |
| 20260901011539 | 29 | 355 | 8.0 | 14.5 | 0.00 | 0.00 | 0.00 | 71 | 1010.8 |
| 20260901010040 | 29 | 350 | 8.0 | 12.9 | 0.00 | 0.00 | 0.00 | 71 | 1010.6 |
| 20260901004534 | 29 | 340 | 11.3 | 16.1 | 0.00 | 0.00 | 0.00 | 69 | 1010.5 |
| 20260901003036 | 29 | 32 | 9.7 | 16.1 | 0.00 | 0.00 | 0.00 | 70 | 1010.4 |
| 20260901001534 | 29 | 360 | 11.3 | 19.3 | 0.00 | 0.00 | 0.00 | 71 | 1010.3 |
| 20260901000037 | 29 | 18 | 11.3 | 19.3 | 0.00 | 0.00 | 0.00 | 70 | 1010.4 |
| 20260831234533 | 30 | 355 | 14.5 | 20.9 | 0.00 | 0.00 | 0.00 | 69 | 1010.4 |
| 20260831233032 | 30 | 18 | 9.7 | 20.9 | 0.00 | 0.00 | 0.00 | 69 | 1010.5 |
| 20260831231532 | 29 | 18 | 14.5 | 20.9 | 0.00 | 0.00 | 0.00 | 69 | 1010.4 |
| 20260831230035 | 28 | 23 | 14.5 | 24.1 | 0.00 | 0.00 | 0.00 | 70 | 1010.4 |
| 20260831224534 | 28 | 5 | 19.3 | 27.4 | 0.00 | 0.00 | 0.00 | 68 | 1010.7 |